Regional Weather Roundup
Issued by NWS Albany, NY

Home | Current Version | Previous Version | Text Only | Print | Product List | Glossary On
Versions: 1 2 3 4 5 6 7 8 9 10 11 12 13 14 15 16 17 18 19 20 21 22 23 24 25 26 27
000
ASUS41 KALY 230410
RWRALY

NEW YORK STATE HOURLY WEATHER ROUNDUP
NATIONAL WEATHER SERVICE ALBANY NY
1200 AM EDT WED APR 23 2014

NOTE: "FAIR" INDICATES FEW OR NO CLOUDS BELOW 12,000 FEET WITH NO
SIGNIFICANT WEATHER AND/OR NO OBSTRUCTIONS TO VISIBILITY.

NYZ032-033-038>043-046>054-057>066-NYZ062>081-230500-
EAST


CITY           SKY/WX    TMP DP  RH WIND       PRES   REMARKS
ALBANY         CLOUDY    51  44  77 W15       29.55R
GLENS FALLS    CLOUDY    56  47  71 SW8       29.49F
POUGHKEEPSIE   MOCLDY    52  48  86 CALM      29.49F
NEWBURGH       MOCLDY    55  52  88 CALM      29.52S
MONTGOMERY     MOCLDY    51  49  92 CALM      29.50F
WHITE PLAINS   PTCLDY    56  50  80 CALM      29.50F
ISLIP          PTCLDY    51  48  89 CALM      29.50S
NEW YORK CITY  PTCLDY    64  44  48 W13       29.50F
CENTRAL PARK   CLEAR     62  47  57 VRB5      29.53F
$$

NYZ005>009-017-018-044>046-055-056-230500-
CENTRAL


CITY           SKY/WX    TMP DP  RH WIND       PRES   REMARKS
FULTON         CLOUDY    43  34  70 W15G25    29.63S
SYRACUSE       CLOUDY    45  37  73 W13       29.64S
ROME           CLOUDY    43  37  79 W13G22    29.62S
ELMIRA         CLOUDY    45  31  58 W14       29.66R
BINGHAMTON     CLOUDY    43  38  82 NW15G23   29.61R
MONTICELLO     CLOUDY    50  48  93 W10       29.56R
$$

NYZ026>034-041>043-230500-
NORTH


CITY           SKY/WX    TMP DP  RH WIND       PRES   REMARKS
WATERTOWN      LGT RAIN  41  36  82 SW13      29.59S
FORT DRUM      NOT AVBL
MASSENA        CLOUDY    47  45  93 NW3       29.52S
SARANAC LAKE   LGT RAIN  45  44  97 SW7       29.47S
PLATTSBURGH    CLOUDY    47  45  93 N10       29.47R
$$

NYZ001>004-010>016-019>021-230500-
WEST


CITY           SKY/WX    TMP DP  RH WIND       PRES   REMARKS
NIAGARA FALLS  CLOUDY    41  34  76 W16       29.71S
BUFFALO        LGT RAIN  41  37  86 W9        29.71S
DUNKIRK        LGT RAIN  38  34  85 W14       29.77S WCI  30
JAMESTOWN      CLOUDY    34  30  86 W9G16     29.75S WCI  26
WELLSVILLE     CLOUDY    37  32  82 NW18      29.68S WCI  27
ROCHESTER      CLOUDY    43  37  79 W15       29.66F
PENN YAN       CLOUDY    44  34  67 W7        29.64S
$$

             KEY
       WCI = WIND CHILL INDEX
       VSB = VISIBILITY
       HX  = HEAT INDEX
$$



USA.gov is the U.S. government's official web portal to all federal, state and local government web resources and services.